Flag for Germany Weather past 2 weeks in Braunschweig, Lower Saxony, Germany

Now
68 °F

Partly sunny.


Feels Like: 68 °F
Forecast: 59 / 79 °F
Wind: 5 mph from West

Location: Braunschweig

Current Time: Aug 4, 2015 at 8:42:32 PM

Latest Report: Aug 4, 2015 at 8:20 PM


Visibility: N/A

Pressure: 29.95 "Hg

Humidity: 94%

Dew point: 66 °F

Location of BraunschweigLocation

Historic Weather in Braunschweig — Graph

°F

Braunschweig temperature yesterday

Maximum temperature yesterday: 90 °F (at 3:20 PM)
Minimum temperature yesterday: 57 °F (at 6:50 AM)
Average temperature yesterday: 80 °F

Past Weeks' High & Low Weather Summary

 TemperatureHumidityPressure
High91 °F (Aug 4, 1:20 PM)100% (Jul 21, 6:50 AM)30.15 "Hg (Jul 21, 6:50 AM)
Low50 °F (Jul 31, 6:50 AM)26% (Aug 3, 4:50 PM)29.53 "Hg (Jul 25, 1:50 PM)
Average69 °F62%29.87 "Hg
* Reported Jul 20 7:20 PM — Aug 4 7:20 PM, Braunschweig, Weather by CustomWeather, © 2015

Note: Actual official high and low records may vary slightly from our data, if they occured in-between our weather recording intervals... More about our weather records

Advertising

Braunschweig weather history for previous 24 hours

 ConditionsComfort  
Time TempWeatherWind HumidityBarometerVisibility
7:20 PM
Tue, Aug 4
68 °FPartly sunny.8 mph94%29.92 "HgN/A
6:50 PM70 °FDrizzle. Partly sunny.6 mph94%29.92 "HgN/A
6:20 PM70 °FPartly sunny.6 mph94%29.92 "HgN/A
5:50 PM70 °FScattered showers. Broken clouds.10 mph94%29.92 "HgN/A
5:20 PM77 °FThundershowers. Partly sunny.14 mph54%29.89 "HgN/A
4:20 PM82 °FScattered showers. Scattered clouds.15 mph45%29.83 "HgN/A
3:50 PM90 °FScattered showers. Scattered clouds.10 mph29%29.80 "HgN/A
3:20 PM91 °FPassing clouds.8 mph28%29.80 "HgN/A
2:50 PM91 °FPassing clouds.7 mph28%29.83 "HgN/A
2:20 PM91 °FSunny.8 mph28%29.83 "Hg10 mi
1:50 PM91 °FPassing clouds.9 mph30%29.83 "HgN/A
1:20 PM91 °FPassing clouds.9 mph30%29.83 "HgN/A
12:50 PM88 °FPassing clouds.10 mph35%29.86 "HgN/A
12:20 PM90 °FPassing clouds.10 mph31%29.86 "HgN/A
11:50 AM88 °FPassing clouds.7 mph35%29.86 "HgN/A
11:20 AM88 °FPassing clouds.7 mph38%29.86 "HgN/A
10:50 AM86 °FPassing clouds.7 mph43%29.89 "HgN/A
10:20 AM86 °FSunny.7 mph40%29.89 "Hg10 mi
9:50 AM82 °FPassing clouds.6 mph48%29.89 "HgN/A
9:20 AM79 °FSunny.8 mph54%29.89 "Hg10 mi
8:50 AM73 °FSunny.6 mph65%29.89 "Hg10 mi
8:20 AM72 °FSunny.5 mph69%29.89 "Hg10 mi
7:50 AM68 °FSunny.3 mph78%29.89 "Hg10 mi
7:20 AM66 °FSunny.3 mph78%29.89 "Hg10 mi
6:50 AM64 °FSunny.3 mph78%29.92 "Hg10 mi
9:50 PM
Mon, Aug 3
77 °FSunny.8 mph42%29.98 "Hg10 mi
9:20 PM77 °FSunny.8 mph44%29.98 "Hg10 mi
8:50 PM81 °FSunny.8 mph39%29.98 "Hg10 mi
8:20 PM82 °FSunny.8 mph37%29.98 "Hg10 mi
Weather by CustomWeather, © 2015

See weather overviewHow to use our weather pages